KC5CAM-13 Weather Reports


time (UTC)temp
C
wind
direction
speed
KPH
gust
KPH
rain 1hr
cm
rain 24hr
cm
rain mn
cm
humidity
%
barometer
mb
20260506004442 20 298 3.2 3.2 0.00 0.00 0.00 73 1007.0
20260506003938 20 337 0.0 1.6 0.00 0.00 0.00 73 1006.9
20260506003435 21 344 1.6 1.6 0.00 0.00 0.00 72 1006.5
20260506002931 21 1 1.6 1.6 0.00 0.00 0.00 72 1006.9
20260506002427 21 322 3.2 3.2 0.00 0.00 0.00 72 1006.5
20260506001923 21 346 3.2 4.8 0.00 0.00 0.00 71 1006.4
20260506001420 21 354 1.6 1.6 0.00 0.00 0.00 71 1006.4
20260506000917 22 344 3.2 3.2 0.00 0.00 0.00 70 1006.6
20260506000416 22 23 3.2 4.8 0.00 0.00 0.00 70 1006.8
20260505235911 22 327 3.2 4.8 0.00 0.00 0.00 70 1006.5
20260505235410 22 9 3.2 3.2 0.00 0.00 0.00 70 1006.4
20260505234906 22 343 0.0 1.6 0.00 0.00 0.00 69 1006.3
20260505234404 23 331 3.2 3.2 0.00 0.00 0.00 69 1006.5
20260505233900 23 341 4.8 8.0 0.00 0.00 0.00 68 1006.6
20260505233358 23 312 6.4 8.0 0.00 0.00 0.00 67 1006.6
20260505232855 23 325 3.2 3.2 0.00 0.00 0.00 69 1006.5
20260505232353 23 334 1.6 1.6 0.00 0.00 0.00 68 1006.3
20260505231849 24 311 6.4 9.7 0.00 0.00 0.00 67 1006.1
20260505231347 24 36 3.2 3.2 0.00 0.00 0.00 67 1006.2
20260505230845 25 329 4.8 8.0 0.00 0.00 0.00 67 1006.1
20260505230342 25 13 1.6 1.6 0.00 0.00 0.00 66 1006.0
20260505225839 25 328 1.6 1.6 0.00 0.00 0.00 66 1006.3
20260505225336 26 43 6.4 9.7 0.00 0.00 0.00 64 1006.2
20260505224831 26 346 8.0 9.7 0.00 0.00 0.00 65 1005.8
20260505224329 26 315 3.2 4.8 0.00 0.00 0.00 65 1005.9
20260505223826 27 339 1.6 1.6 0.00 0.00 0.00 64 1005.5
20260505223323 27 334 1.6 1.6 0.00 0.00 0.00 63 1005.2
20260505222818 27 330 1.6 1.6 0.00 0.00 0.00 62 1005.5
20260505222315 28 280 8.0 12.9 0.00 0.00 0.00 60 1005.3
20260505221813 28 332 1.6 1.6 0.00 0.00 0.00 61 1005.0
20260505221309 28 351 0.0 0.0 0.00 0.00 0.00 60 1005.0
20260505220806 29 328 6.4 9.7 0.00 0.00 0.00 56 1005.2
20260505220303 30 81 0.0 1.6 0.00 0.00 0.00 54 1005.0
20260505215801 30 320 1.6 1.6 0.00 0.00 0.00 54 1004.9
20260505215259 30 333 1.6 1.6 0.00 0.00 0.00 56 1004.7
20260505214756 29 302 1.6 3.2 0.00 0.00 0.00 57 1004.9
20260505214253 29 341 3.2 4.8 0.00 0.00 0.00 55 1004.9
20260505213750 30 340 3.2 4.8 0.00 0.00 0.00 54 1005.0
20260505213248 31 317 1.6 1.6 0.00 0.00 0.00 51 1005.0
20260505212743 31 350 1.6 3.2 0.00 0.00 0.00 49 1004.8
20260505212241 31 280 3.2 4.8 0.00 0.00 0.00 47 1004.8
20260505211738 31 340 3.2 3.2 0.00 0.00 0.00 47 1005.0
20260505211235 31 321 1.6 1.6 0.00 0.00 0.00 46 1004.9
20260505210731 31 317 3.2 4.8 0.00 0.00 0.00 45 1005.0
20260505210228 31 317 3.2 3.2 0.00 0.00 0.00 45 1005.1
20260505205726 31 186 3.2 4.8 0.00 0.00 0.00 49 1005.0
20260505205224 31 320 1.6 1.6 0.00 0.00 0.00 51 1005.0
20260505204720 31 328 3.2 3.2 0.00 0.00 0.00 46 1005.2
20260505204218 32 329 0.0 1.6 0.00 0.00 0.00 48 1005.2
20260505203715 32 242 3.2 8.0 0.00 0.00 0.00 50 1005.0
20260505203212 32 18 1.6 1.6 0.00 0.00 0.00 50 1005.1
20260505202707 32 216 1.6 4.8 0.00 0.00 0.00 54 1005.0
20260505202204 31 1 1.6 3.2 0.00 0.00 0.00 54 1005.1
20260505201700 31 151 4.8 4.8 0.00 0.00 0.00 55 1005.0
20260505201158 30 141 1.6 3.2 0.00 0.00 0.00 61 1005.2
20260505200656 30 246 4.8 4.8 0.00 0.00 0.00 60 1005.4
20260505200153 30 198 3.2 4.8 0.00 0.00 0.00 59 1005.3
20260505195649 30 321 4.8 8.0 0.00 0.00 0.00 61 1005.3
20260505195146 31 143 1.6 3.2 0.00 0.00 0.00 60 1005.2
20260505194643 31 144 3.2 4.8 0.00 0.00 0.00 61 1005.2
20260505194139 30 216 3.2 3.2 0.00 0.00 0.00 62 1005.3
20260505193636 30 184 4.8 4.8 0.00 0.00 0.00 62 1005.3
20260505193133 30 251 1.6 1.6 0.00 0.00 0.00 64 1005.5
20260505192632 30 157 4.8 8.0 0.00 0.00 0.00 63 1005.4
20260505192129 30 316 1.6 1.6 0.00 0.00 0.00 65 1005.2
20260505191627 30 311 3.2 3.2 0.00 0.00 0.00 62 1005.3
20260505191125 30 155 6.4 9.7 0.00 0.00 0.00 65 1005.1
20260505190620 30 157 4.8 9.7 0.00 0.00 0.00 64 1005.3
20260505190115 29 35 8.0 11.3 0.00 0.00 0.00 65 1005.1
20260505185613 28 115 6.4 8.0 0.00 0.00 0.00 66 1005.0
20260505185109 28 138 8.0 11.3 0.00 0.00 0.00 66 1005.2
20260505184605 28 180 8.0 9.7 0.00 0.00 0.00 65 1005.1
20260505184102 28 184 11.3 12.9 0.00 0.00 0.00 66 1005.1
20260505183559 28 166 12.9 16.1 0.00 0.00 0.00 66 1005.3
20260505183057 29 212 4.8 8.0 0.00 0.00 0.00 64 1005.5
20260505182553 29 194 3.2 3.2 0.00 0.00 0.00 66 1005.4
20260505182050 29 188 4.8 4.8 0.00 0.00 0.00 66 1005.3
20260505181546 28 76 8.0 11.3 0.00 0.00 0.00 65 1005.2
20260505181044 28 298 6.4 8.0 0.00 0.00 0.00 66 1005.4
20260505180539 28 194 3.2 4.8 0.00 0.00 0.00 67 1005.4
20260505180038 28 157 6.4 14.5 0.00 0.00 0.00 66 1005.6
20260505175537 28 167 14.5 24.1 0.00 0.00 0.00 66 1005.3
20260505175035 28 197 8.0 12.9 0.00 0.00 0.00 66 1005.4
20260505174531 28 141 3.2 4.8 0.00 0.00 0.00 70 1005.4
20260505174027 28 257 8.0 11.3 0.00 0.00 0.00 70 1005.4
20260505173524 27 154 6.4 9.7 0.00 0.00 0.00 70 1005.5
20260505173021 27 161 3.2 3.2 0.00 0.00 0.00 71 1005.4
20260505172519 27 287 1.6 3.2 0.00 0.00 0.00 72 1005.5
20260505172015 26 314 4.8 8.0 0.00 0.00 0.00 72 1005.3
20260505171510 26 173 16.1 22.5 0.00 0.00 0.00 71 1005.4
20260505171008 26 128 3.2 4.8 0.00 0.00 0.00 73 1005.3
20260505170504 26 199 8.0 11.3 0.00 0.00 0.00 73 1005.3
20260505170000 26 167 11.3 14.5 0.00 0.00 0.00 75 1005.3
20260505165456 26 198 11.3 12.9 0.00 0.00 0.00 76 1005.2
20260505164951 25 169 6.4 8.0 0.00 0.00 0.00 76 1005.4
20260505164448 25 224 9.7 11.3 0.00 0.00 0.00 76 1005.4
20260505163946 25 199 8.0 16.1 0.00 0.00 0.00 76 1005.4
20260505163445 25 260 8.0 11.3 0.00 0.00 0.00 76 1005.4
20260505162944 25 198 3.2 3.2 0.00 0.00 0.00 76 1005.3
20260505162439 25 206 8.0 12.9 0.00 0.00 0.00 76 1005.3
20260505161936 25 190 8.0 9.7 0.00 0.00 0.00 77 1005.2
20260505161432 25 143 8.0 11.3 0.00 0.00 0.00 77 1005.1
20260505160930 25 168 8.0 11.3 0.00 0.00 0.00 77 1005.3
20260505160428 25 210 8.0 12.9 0.00 0.00 0.00 77 1005.1
20260505152905 25 113 8.0 11.3 0.00 0.00 0.00 77 1005.0
20260505152403 25 184 14.5 22.5 0.00 0.00 0.00 76 1005.1
20260505151901 24 164 12.9 17.7 0.00 0.00 0.00 78 1004.7
20260505151358 24 161 8.0 12.9 0.00 0.00 0.00 78 1004.9
20260505150856 23 145 9.7 11.3 0.00 0.00 0.00 79 1005.0
20260505150353 23 170 8.0 12.9 0.00 0.00 0.00 80 1005.2
20260505140322 23 140 6.4 9.7 0.00 0.00 0.00 83 1004.7
20260505130246 21 169 6.4 9.7 0.00 0.00 0.00 86 1004.6
20260505124736 21 127 14.5 17.7 0.00 0.00 0.00 86 1004.5
20260505124233 21 157 9.7 11.3 0.00 0.00 0.00 87 1004.4
20260505123729 21 294 6.4 11.3 0.00 0.00 0.00 87 1004.4
20260505123226 21 194 8.0 11.3 0.00 0.00 0.00 87 1004.1
20260505122722 21 144 8.0 12.9 0.00 0.00 0.00 87 1004.0
20260505122220 21 152 6.4 9.7 0.00 0.00 0.00 86 1004.0
20260505121716 21 164 11.3 17.7 0.00 0.00 0.00 87 1004.0
20260505121213 21 222 9.7 12.9 0.00 0.00 0.00 87 1003.8
20260505120709 21 105 4.8 8.0 0.00 0.00 0.00 87 1004.0
20260505120205 21 263 8.0 12.9 0.00 0.00 0.00 87 1003.9
20260505115659 21 210 9.7 12.9 0.00 0.00 0.00 87 1004.1
20260505115157 21 153 6.4 12.9 0.00 0.00 0.00 87 1004.0
20260505114654 21 161 9.7 14.5 0.00 0.00 0.00 87 1003.8
20260505114150 21 182 4.8 4.8 0.00 0.00 0.00 87 1004.0
20260505113646 21 142 4.8 8.0 0.00 0.00 0.00 87 1003.7
20260505113143 21 184 9.7 14.5 0.00 0.00 0.00 87 1003.8
20260505112640 21 206 4.8 4.8 0.00 0.00 0.00 87 1003.7
20260505112138 21 194 9.7 11.3 0.00 0.00 0.00 87 1003.7
20260505111637 21 182 6.4 9.7 0.00 0.00 0.00 87 1003.8
20260505111133 21 300 4.8 4.8 0.00 0.00 0.00 87 1003.6
20260505110629 21 186 11.3 17.7 0.00 0.00 0.00 87 1003.7
20260505110127 21 151 4.8 11.3 0.00 0.00 0.00 87 1003.7
20260505102102 21 193 6.4 8.0 0.00 0.00 0.00 86 1003.8
20260505101601 21 128 4.8 8.0 0.00 0.00 0.00 86 1003.9
20260505101057 21 208 4.8 4.8 0.00 0.00 0.00 86 1003.9
20260505100553 21 170 6.4 11.3 0.00 0.00 0.00 85 1004.1
20260505100050 21 168 16.1 24.1 0.00 0.00 0.00 85 1003.8
20260505095547 21 205 6.4 9.7 0.00 0.00 0.00 85 1003.9
20260505095043 21 217 11.3 12.9 0.00 0.00 0.00 85 1003.8
20260505094539 22 124 9.7 12.9 0.00 0.00 0.00 84 1003.8
20260505094036 22 111 8.0 11.3 0.00 0.00 0.00 84 1003.8
20260505093533 22 143 8.0 9.7 0.00 0.00 0.00 84 1003.8
20260505093030 22 192 11.3 12.9 0.00 0.00 0.00 84 1003.8
20260505092527 22 180 14.5 16.1 0.00 0.00 0.00 84 1004.0
20260505092026 22 165 9.7 11.3 0.00 0.00 0.00 84 1004.0
20260505091522 22 168 9.7 11.3 0.00 0.00 0.00 83 1004.2
20260505091020 22 193 8.0 11.3 0.00 0.00 0.00 83 1004.1
20260505090518 22 193 11.3 14.5 0.00 0.00 0.00 83 1004.3
20260505090016 22 157 8.0 11.3 0.00 0.00 0.00 83 1004.5
20260505085513 22 262 11.3 16.1 0.00 0.00 0.00 83 1004.3
20260505085011 22 189 11.3 16.1 0.00 0.00 0.00 82 1004.2
20260505084509 22 160 8.0 9.7 0.00 0.00 0.00 82 1004.1
20260505084007 22 132 11.3 14.5 0.00 0.00 0.00 81 1004.3
20260505083504 22 182 12.9 14.5 0.00 0.00 0.00 81 1004.3
20260505083000 22 129 8.0 9.7 0.00 0.00 0.00 81 1004.2
20260505082456 22 168 8.0 11.3 0.00 0.00 0.00 80 1004.1
20260505081953 22 167 9.7 14.5 0.00 0.00 0.00 80 1004.3
20260505081450 22 134 9.7 14.5 0.00 0.00 0.00 79 1004.3
20260505080946 22 123 6.4 14.5 0.00 0.00 0.00 79 1004.5
20260505080442 22 182 6.4 11.3 0.00 0.00 0.00 78 1004.4
20260505075938 22 133 8.0 9.7 0.00 0.00 0.00 78 1004.2
20260505075435 22 171 8.0 11.3 0.00 0.00 0.00 78 1004.5
20260505074932 22 121 6.4 8.0 0.00 0.00 0.00 78 1004.5
20260505074430 23 210 8.0 11.3 0.00 0.00 0.00 77 1004.6
20260505073927 23 147 4.8 9.7 0.00 0.00 0.00 77 1004.6
20260505073425 23 181 8.0 12.9 0.00 0.00 0.00 77 1004.8
20260505072921 23 166 17.7 22.5 0.00 0.00 0.00 76 1004.8
20260505072418 23 209 12.9 17.7 0.00 0.00 0.00 76 1005.1
20260505071914 23 181 8.0 11.3 0.00 0.00 0.00 76 1005.2
20260505071410 23 202 8.0 9.7 0.00 0.00 0.00 75 1005.3
20260505070908 23 210 14.5 16.1 0.00 0.00 0.00 75 1005.2
20260505070404 23 154 6.4 9.7 0.00 0.00 0.00 74 1005.3
20260505065900 23 126 4.8 8.0 0.00 0.00 0.00 74 1005.4
20260505065357 23 166 11.3 11.3 0.00 0.00 0.00 74 1005.4
20260505064854 23 150 11.3 14.5 0.00 0.00 0.00 73 1005.4
20260505064351 23 163 8.0 12.9 0.00 0.00 0.00 74 1005.5
20260505063849 23 162 8.0 9.7 0.00 0.00 0.00 73 1005.5
20260505063345 23 172 11.3 12.9 0.00 0.00 0.00 73 1005.6
20260505062842 23 211 8.0 11.3 0.00 0.00 0.00 73 1005.8
20260505062339 23 194 11.3 14.5 0.00 0.00 0.00 72 1005.5
20260505061836 23 80 9.7 14.5 0.00 0.00 0.00 73 1005.9
20260505061334 23 145 8.0 9.7 0.00 0.00 0.00 73 1006.1
20260505060831 23 187 9.7 9.7 0.00 0.00 0.00 72 1005.9
20260505060328 23 132 8.0 9.7 0.00 0.00 0.00 73 1006.1
20260505055824 23 182 6.4 9.7 0.00 0.00 0.00 74 1006.0
20260505055320 23 195 8.0 12.9 0.00 0.00 0.00 74 1005.9
20260505054817 23 87 8.0 11.3 0.00 0.00 0.00 74 1005.9
20260505054314 23 163 8.0 11.3 0.00 0.00 0.00 74 1005.9
20260505053813 23 131 4.8 11.3 0.00 0.00 0.00 74 1005.9
20260505053309 23 217 4.8 4.8 0.00 0.00 0.00 75 1006.0
20260505052806 23 170 6.4 8.0 0.00 0.00 0.00 75 1005.9
20260505052304 23 197 11.3 16.1 0.00 0.00 0.00 75 1006.1
20260505051800 23 180 6.4 8.0 0.00 0.00 0.00 75 1005.8
20260505051258 23 142 4.8 4.8 0.00 0.00 0.00 75 1006.0
20260505050755 23 198 8.0 9.7 0.00 0.00 0.00 74 1006.2
20260505050254 23 139 8.0 9.7 0.00 0.00 0.00 74 1006.2
20260505041723 23 183 8.0 12.9 0.00 0.00 0.00 73 1006.1
20260505041221 23 157 8.0 9.7 0.00 0.00 0.00 73 1006.1
20260505040718 23 142 9.7 16.1 0.00 0.00 0.00 73 1006.2
20260505040215 23 167 12.9 20.9 0.00 0.00 0.00 72 1006.2
20260505035712 23 157 9.7 12.9 0.00 0.00 0.00 72 1006.4
20260505035208 23 178 11.3 14.5 0.00 0.00 0.00 72 1006.1
20260505034705 23 163 8.0 9.7 0.00 0.00 0.00 73 1006.4
20260505034202 23 162 11.3 14.5 0.00 0.00 0.00 72 1006.2
20260505033658 23 201 6.4 9.7 0.00 0.00 0.00 73 1006.1
20260505033156 23 142 8.0 11.3 0.00 0.00 0.00 72 1006.2
20260505032654 23 161 8.0 9.7 0.00 0.00 0.00 72 1006.3
20260505032155 23 148 6.4 11.3 0.00 0.00 0.00 72 1006.1
20260505031652 23 114 8.0 11.3 0.00 0.00 0.00 72 1006.4
20260505031148 23 143 6.4 9.7 0.00 0.00 0.00 72 1006.4
20260505030646 23 225 8.0 9.7 0.00 0.00 0.00 72 1006.2
20260505030141 23 168 8.0 11.3 0.00 0.00 0.00 72 1006.3
20260505025637 23 139 9.7 12.9 0.00 0.00 0.00 71 1006.2
20260505025136 23 166 9.7 12.9 0.00 0.00 0.00 71 1006.1
20260505024633 24 160 8.0 9.7 0.00 0.00 0.00 71 1006.3
20260505024130 24 128 6.4 8.0 0.00 0.00 0.00 71 1006.5
20260505023628 24 165 8.0 9.7 0.00 0.00 0.00 71 1006.4
20260505023125 23 223 9.7 11.3 0.00 0.00 0.00 71 1006.4
20260505022623 23 151 6.4 8.0 0.00 0.00 0.00 72 1006.2
20260505022119 23 195 6.4 8.0 0.00 0.00 0.00 71 1006.4
20260505021616 24 193 9.7 16.1 0.00 0.00 0.00 70 1006.3
20260505021113 24 169 9.7 12.9 0.00 0.00 0.00 71 1006.2
20260505020608 24 163 12.9 16.1 0.00 0.00 0.00 70 1006.2
20260505020105 24 161 9.7 11.3 0.00 0.00 0.00 70 1006.3
20260505015602 24 179 11.3 20.9 0.00 0.00 0.00 70 1006.1
20260505015058 24 183 11.3 12.9 0.00 0.00 0.00 70 1006.2
20260505014555 24 155 6.4 8.0 0.00 0.00 0.00 70 1006.1
20260505014052 24 131 6.4 8.0 0.00 0.00 0.00 70 1006.4
20260505013549 24 166 6.4 8.0 0.00 0.00 0.00 70 1006.2
20260505013047 24 135 6.4 9.7 0.00 0.00 0.00 69 1006.4
20260505012545 24 187 12.9 20.9 0.00 0.00 0.00 69 1006.3
20260505012042 24 129 8.0 9.7 0.00 0.00 0.00 69 1006.2
20260505011537 25 145 11.3 12.9 0.00 0.00 0.00 69 1006.2
20260505011035 25 142 8.0 11.3 0.00 0.00 0.00 69 1006.1
20260505010530 25 175 11.3 14.5 0.00 0.00 0.00 68 1006.1
20260505010027 25 188 8.0 11.3 0.00 0.00 0.00 68 1006.1
20260505005523 25 169 14.5 17.7 0.00 0.00 0.00 68 1006.1
20260505005021 25 184 11.3 12.9 0.00 0.00 0.00 68 1006.0